Time,TemperatureF,DewpointF,PressureIn,WindDirection,WindDirectionDegrees,WindSpeedMPH,WindSpeedGustMPH,Humidity,HourlyPrecipIn,Conditions,Clouds,dailyrainin,SoftwareType,DateUTC
2013-03-28 00:03:00,31.0,20.0,-100.00,SW,230,13.0,13.0,62,0.00,,,-99.99,,2013-03-28 04:03:00,
2013-03-28 00:12:00,31.0,19.0,-100.00,SW,230,13.0,13.0,62,0.00,,,-99.99,,2013-03-28 04:12:00,
2013-03-28 00:23:00,29.0,19.0,-100.00,SW,235,13.0,13.0,64,0.00,,,-99.99,,2013-03-28 04:23:00,
2013-03-28 00:32:00,29.0,19.0,-100.00,SW,235,13.0,13.0,66,0.00,,,-99.99,,2013-03-28 04:32:00,
2013-03-28 00:42:00,29.0,20.0,-100.00,SW,235,13.0,13.0,67,0.00,,,-99.99,,2013-03-28 04:42:00,
2013-03-28 00:52:00,29.0,20.0,-100.00,SW,235,13.0,13.0,68,0.00,,,-99.99,,2013-03-28 04:52:00,
2013-03-28 01:02:00,29.0,19.0,-100.00,SW,230,13.0,13.0,67,0.00,,,-99.99,,2013-03-28 05:02:00,
2013-03-28 01:12:00,28.0,19.0,-100.00,SW,230,13.0,13.0,68,0.00,,,-99.99,,2013-03-28 05:12:00,
2013-03-28 01:22:00,28.0,19.0,-100.00,SW,235,13.0,13.0,69,0.00,,,-99.99,,2013-03-28 05:22:00,
2013-03-28 01:32:00,28.0,20.0,-100.00,SW,235,13.0,13.0,70,0.00,,,-99.99,,2013-03-28 05:32:00,
2013-03-28 01:42:00,29.0,20.0,-100.00,SW,230,13.0,13.0,68,0.00,,,-99.99,,2013-03-28 05:42:00,
2013-03-28 01:52:00,29.0,20.0,-100.00,SW,235,13.0,13.0,68,0.00,,,-99.99,,2013-03-28 05:52:00,
2013-03-28 02:02:00,29.0,20.0,-100.00,SW,235,13.0,13.0,68,0.00,,,-99.99,,2013-03-28 06:02:00,
2013-03-28 02:12:00,28.0,20.0,-100.00,SW,235,13.0,13.0,69,0.00,,,-99.99,,2013-03-28 06:12:00,
2013-03-28 02:22:00,28.0,20.0,-100.00,SW,230,13.0,13.0,69,0.00,,,-99.99,,2013-03-28 06:22:00,
2013-03-28 02:32:00,28.0,19.0,-100.00,SW,235,13.0,13.0,68,0.00,,,-99.99,,2013-03-28 06:32:00,
2013-03-28 02:42:00,28.0,19.0,-100.00,SW,235,13.0,13.0,70,0.00,,,-99.99,,2013-03-28 06:42:00,
2013-03-28 02:52:00,28.0,20.0,-100.00,SW,235,13.0,13.0,71,0.00,,,-99.99,,2013-03-28 06:52:00,
2013-03-28 03:02:00,28.0,20.0,-100.00,WSW,240,13.0,13.0,71,0.00,,,-99.99,,2013-03-28 07:02:00,
2013-03-28 03:12:00,28.0,20.0,-100.00,WSW,240,13.0,13.0,73,0.00,,,-99.99,,2013-03-28 07:12:00,
2013-03-28 03:22:00,27.0,20.0,-100.00,SW,235,13.0,13.0,73,0.00,,,-99.99,,2013-03-28 07:22:00,
2013-03-28 03:32:00,28.0,20.0,-100.00,SW,230,13.0,13.0,73,0.00,,,-99.99,,2013-03-28 07:32:00,
2013-03-28 03:42:00,28.0,20.0,-100.00,SW,235,13.0,13.0,73,0.00,,,-99.99,,2013-03-28 07:42:00,
2013-03-28 03:52:00,28.0,20.0,-100.00,SW,235,13.0,13.0,72,0.00,,,-99.99,,2013-03-28 07:52:00,
2013-03-28 04:02:00,28.0,20.0,-100.00,WSW,240,13.0,13.0,73,0.00,,,-99.99,,2013-03-28 08:02:00,
2013-03-28 04:12:00,28.0,20.0,-100.00,WSW,240,13.0,13.0,72,0.00,,,-99.99,,2013-03-28 08:12:00,
2013-03-28 04:22:00,27.0,20.0,-100.00,SW,235,13.0,13.0,73,0.00,,,-99.99,,2013-03-28 08:22:00,
2013-03-28 04:33:00,27.0,20.0,-100.00,SW,235,13.0,13.0,74,0.00,,,-99.99,,2013-03-28 08:33:00,
2013-03-28 04:42:00,27.0,20.0,-100.00,SW,235,13.0,13.0,75,0.00,,,-99.99,,2013-03-28 08:42:00,
2013-03-28 04:52:00,27.0,20.0,-100.00,WSW,245,13.0,13.0,76,0.00,,,-99.99,,2013-03-28 08:52:00,
2013-03-28 05:02:00,27.0,20.0,-100.00,WSW,240,13.0,13.0,75,0.00,,,-99.99,,2013-03-28 09:02:00,
2013-03-28 05:12:00,27.0,20.0,-100.00,SW,235,13.0,13.0,76,0.00,,,-99.99,,2013-03-28 09:12:00,
2013-03-28 05:22:00,27.0,21.0,-100.00,WSW,240,13.0,13.0,76,0.00,,,-99.99,,2013-03-28 09:22:00,
2013-03-28 05:32:00,28.0,21.0,-100.00,WSW,245,13.0,13.0,75,0.00,,,-99.99,,2013-03-28 09:32:00,
2013-03-28 05:42:00,28.0,21.0,-100.00,WSW,245,13.0,13.0,75,0.00,,,-99.99,,2013-03-28 09:42:00,
2013-03-28 05:52:00,28.0,21.0,-100.00,WSW,240,13.0,13.0,76,0.00,,,-99.99,,2013-03-28 09:52:00,
2013-03-28 06:03:00,27.0,21.0,-100.00,SW,235,13.0,13.0,78,0.00,,,-99.99,,2013-03-28 10:03:00,
2013-03-28 06:12:00,28.0,22.0,-100.00,SW,230,13.0,13.0,77,0.00,,,-99.99,,2013-03-28 10:12:00,
2013-03-28 06:22:00,27.0,21.0,-100.00,SW,235,13.0,13.0,77,0.00,,,-99.99,,2013-03-28 10:22:00,
2013-03-28 06:33:00,27.0,21.0,-100.00,SW,235,13.0,13.0,78,0.00,,,-99.99,,2013-03-28 10:33:00,
2013-03-28 06:42:00,27.0,22.0,-100.00,SW,235,13.0,13.0,78,0.00,,,-99.99,,2013-03-28 10:42:00,
2013-03-28 06:52:00,27.0,21.0,-100.00,SW,235,13.0,13.0,78,0.00,,,-99.99,,2013-03-28 10:52:00,
2013-03-28 07:02:00,27.0,21.0,-100.00,SW,230,13.0,13.0,78,0.00,,,-99.99,,2013-03-28 11:02:00,
2013-03-28 07:12:00,27.0,21.0,-100.00,SW,235,13.0,13.0,77,0.00,,,-99.99,,2013-03-28 11:12:00,
2013-03-28 07:23:00,27.0,21.0,-100.00,WSW,240,13.0,13.0,78,0.00,,,-99.99,,2013-03-28 11:23:00,
2013-03-28 07:32:00,28.0,22.0,-100.00,SW,235,13.0,13.0,78,0.00,,,-99.99,,2013-03-28 11:32:00,
2013-03-28 07:42:00,28.0,22.0,-100.00,SW,225,13.0,13.0,77,0.00,,,-99.99,,2013-03-28 11:42:00,
2013-03-28 07:52:00,28.0,22.0,-100.00,SW,220,13.0,13.0,77,0.00,,,-99.99,,2013-03-28 11:52:00,
2013-03-28 08:02:00,28.0,22.0,-100.00,SW,220,13.0,13.0,76,0.00,,,-99.99,,2013-03-28 12:02:00,
2013-03-28 08:12:00,29.0,22.0,-100.00,SW,220,13.0,13.0,76,0.00,,,-99.99,,2013-03-28 12:12:00,
2013-03-28 08:22:00,29.0,22.0,-100.00,SW,220,13.0,13.0,77,0.00,,,-99.99,,2013-03-28 12:22:00,
2013-03-28 08:32:00,30.0,23.0,-100.00,SW,225,13.0,13.0,75,0.00,,,-99.99,,2013-03-28 12:32:00,
2013-03-28 08:42:00,30.0,23.0,-100.00,SW,220,13.0,13.0,73,0.00,,,-99.99,,2013-03-28 12:42:00,
2013-03-28 08:52:00,31.0,23.0,-100.00,SW,225,13.0,13.0,72,0.00,,,-99.99,,2013-03-28 12:52:00,
2013-03-28 09:02:00,31.0,23.0,-100.00,SW,225,13.0,13.0,72,0.00,,,-99.99,,2013-03-28 13:02:00,
2013-03-28 09:12:00,33.0,24.0,-100.00,WSW,245,13.0,13.0,68,0.00,,,-99.99,,2013-03-28 13:12:00,
2013-03-28 09:22:00,33.0,24.0,-100.00,SW,235,13.0,13.0,68,0.00,,,-99.99,,2013-03-28 13:22:00,
2013-03-28 09:32:00,34.0,24.0,-100.00,SW,230,13.0,13.0,66,0.00,,,-99.99,,2013-03-28 13:32:00,
2013-03-28 09:42:00,35.0,24.0,-100.00,WSW,245,13.0,13.0,64,0.00,,,-99.99,,2013-03-28 13:42:00,
2013-03-28 09:52:00,35.0,24.0,-100.00,SW,230,13.0,13.0,63,0.00,,,-99.99,,2013-03-28 13:52:00,
2013-03-28 10:02:00,36.0,24.0,-100.00,SW,225,13.0,13.0,60,0.00,,,-99.99,,2013-03-28 14:02:00,
2013-03-28 10:12:00,37.0,24.0,-100.00,SW,230,13.0,13.0,59,0.00,,,-99.99,,2013-03-28 14:12:00,
2013-03-28 10:22:00,38.0,24.0,-100.00,SW,230,13.0,13.0,58,0.00,,,-99.99,,2013-03-28 14:22:00,
2013-03-28 10:33:00,38.0,24.0,-100.00,SW,235,13.0,13.0,55,0.00,,,-99.99,,2013-03-28 14:33:00,
2013-03-28 10:42:00,39.0,24.0,-100.00,SW,220,13.0,13.0,53,0.00,,,-99.99,,2013-03-28 14:42:00,
2013-03-28 10:52:00,39.0,24.0,-100.00,SW,220,13.0,13.0,53,0.00,,,-99.99,,2013-03-28 14:52:00,
2013-03-28 11:02:00,40.0,22.0,-100.00,SW,225,13.0,13.0,48,0.00,,,-99.99,,2013-03-28 15:02:00,
2013-03-28 11:12:00,41.0,22.0,-100.00,SW,225,13.0,13.0,47,0.00,,,-99.99,,2013-03-28 15:12:00,
2013-03-28 11:22:00,41.0,22.0,-100.00,WSW,250,13.0,13.0,46,0.00,,,-99.99,,2013-03-28 15:22:00,
2013-03-28 11:33:00,42.0,22.0,-100.00,WSW,250,13.0,13.0,44,0.00,,,-99.99,,2013-03-28 15:33:00,
2013-03-28 11:43:00,43.0,22.0,-100.00,WSW,245,13.0,13.0,43,0.00,,,-99.99,,2013-03-28 15:43:00,
2013-03-28 11:52:00,44.0,23.0,-100.00,WSW,240,13.0,13.0,43,0.00,,,-99.99,,2013-03-28 15:52:00,
2013-03-28 12:03:00,44.0,21.0,-100.00,WSW,240,13.0,14.0,40,0.00,,,-99.99,,2013-03-28 16:03:00,
2013-03-28 12:12:00,44.0,20.0,-100.00,SW,235,13.0,13.0,38,0.00,,,-99.99,,2013-03-28 16:12:00,
2013-03-28 12:23:00,45.0,19.0,-100.00,WSW,255,13.0,13.0,35,0.00,,,-99.99,,2013-03-28 16:23:00,
2013-03-28 12:32:00,45.0,20.0,-100.00,WSW,240,13.0,14.0,36,0.00,,,-99.99,,2013-03-28 16:32:00,
2013-03-28 12:42:00,46.0,20.0,-100.00,West,260,13.0,15.0,35,0.00,,,-99.99,,2013-03-28 16:42:00,
2013-03-28 12:52:00,46.0,20.0,-100.00,WSW,240,13.0,16.0,34,0.00,,,-99.99,,2013-03-28 16:52:00,
2013-03-28 13:02:00,46.0,20.0,-100.00,West,260,13.0,14.0,34,0.00,,,-99.99,,2013-03-28 17:02:00,
2013-03-28 13:12:00,47.0,21.0,-100.00,WSW,240,13.0,14.0,34,0.00,,,-99.99,,2013-03-28 17:12:00,
2013-03-28 13:22:00,46.0,20.0,-100.00,WSW,245,13.0,13.0,35,0.00,,,-99.99,,2013-03-28 17:22:00,
2013-03-28 13:32:00,47.0,20.0,-100.00,WSW,245,13.0,14.0,33,0.00,,,-99.99,,2013-03-28 17:32:00,
2013-03-28 13:42:00,47.0,21.0,-100.00,SW,235,13.0,15.0,35,0.00,,,-99.99,,2013-03-28 17:42:00,
2013-03-28 13:52:00,48.0,21.0,-100.00,SW,230,13.0,13.0,34,0.00,,,-99.99,,2013-03-28 17:52:00,
2013-03-28 14:02:00,47.0,20.0,-100.00,SW,230,13.0,14.0,34,0.00,,,-99.99,,2013-03-28 18:02:00,
2013-03-28 14:12:00,48.0,20.0,-100.00,SW,220,13.0,14.0,32,0.00,,,-99.99,,2013-03-28 18:12:00,
2013-03-28 14:22:00,48.0,21.0,-100.00,WSW,250,13.0,14.0,33,0.00,,,-99.99,,2013-03-28 18:22:00,
2013-03-28 14:32:00,49.0,21.0,-100.00,SW,225,13.0,14.0,33,0.00,,,-99.99,,2013-03-28 18:32:00,
2013-03-28 14:42:00,49.0,20.0,-100.00,WSW,240,13.0,14.0,31,0.00,,,-99.99,,2013-03-28 18:42:00,
2013-03-28 14:52:00,49.0,21.0,-100.00,SW,215,13.0,14.0,32,0.00,,,-99.99,,2013-03-28 18:52:00,
2013-03-28 15:02:00,49.0,21.0,-100.00,SW,215,13.0,14.0,32,0.00,,,-99.99,,2013-03-28 19:02:00,
2013-03-28 15:12:00,50.0,24.0,-100.00,SW,215,13.0,13.0,35,0.00,,,-99.99,,2013-03-28 19:12:00,
2013-03-28 15:22:00,49.0,21.0,-100.00,SW,225,13.0,13.0,32,0.00,,,-99.99,,2013-03-28 19:22:00,
2013-03-28 15:33:00,50.0,20.0,-100.00,West,260,13.0,13.0,30,0.00,,,-99.99,,2013-03-28 19:33:00,
2013-03-28 15:42:00,50.0,20.0,-100.00,WSW,245,13.0,14.0,30,0.00,,,-99.99,,2013-03-28 19:42:00,
2013-03-28 15:52:00,50.0,19.0,-100.00,SW,230,13.0,14.0,28,0.00,,,-99.99,,2013-03-28 19:52:00,
2013-03-28 16:03:00,51.0,20.0,-100.00,SSW,205,13.0,13.0,29,0.00,,,-99.99,,2013-03-28 20:03:00,
2013-03-28 16:12:00,51.0,19.0,-100.00,WSW,240,13.0,16.0,28,0.00,,,-99.99,,2013-03-28 20:12:00,
2013-03-28 16:22:00,50.0,19.0,-100.00,SW,230,13.0,14.0,28,0.00,,,-99.99,,2013-03-28 20:22:00,
2013-03-28 16:32:00,49.0,19.0,-100.00,SW,230,13.0,14.0,30,0.00,,,-99.99,,2013-03-28 20:32:00,
2013-03-28 16:42:00,49.0,18.0,-100.00,WSW,250,13.0,13.0,29,0.00,,,-99.99,,2013-03-28 20:42:00,
2013-03-28 16:52:00,50.0,19.0,-100.00,SW,225,13.0,13.0,28,0.00,,,-99.99,,2013-03-28 20:52:00,
2013-03-28 17:02:00,50.0,19.0,-100.00,SW,235,13.0,13.0,28,0.00,,,-99.99,,2013-03-28 21:02:00,
2013-03-28 17:12:00,49.0,20.0,-100.00,SW,235,13.0,14.0,30,0.00,,,-99.99,,2013-03-28 21:12:00,
2013-03-28 17:22:00,50.0,19.0,-100.00,SW,230,13.0,13.0,28,0.00,,,-99.99,,2013-03-28 21:22:00,
2013-03-28 17:33:00,50.0,19.0,-100.00,SW,235,13.0,13.0,29,0.00,,,-99.99,,2013-03-28 21:33:00,
2013-03-28 17:43:00,50.0,19.0,-100.00,SW,220,13.0,13.0,29,0.00,,,-99.99,,2013-03-28 21:43:00,
2013-03-28 17:53:00,50.0,19.0,-100.00,SW,230,13.0,14.0,28,0.00,,,-99.99,,2013-03-28 21:53:00,
2013-03-28 18:03:00,50.0,19.0,-100.00,SW,225,13.0,13.0,28,0.00,,,-99.99,,2013-03-28 22:03:00,
2013-03-28 18:12:00,50.0,19.0,-100.00,SW,235,13.0,13.0,28,0.00,,,-99.99,,2013-03-28 22:12:00,
2013-03-28 18:22:00,49.0,19.0,-100.00,SW,230,13.0,13.0,30,0.00,,,-99.99,,2013-03-28 22:22:00,
2013-03-28 18:32:00,50.0,19.0,-100.00,SW,225,13.0,13.0,29,0.00,,,-99.99,,2013-03-28 22:32:00,
2013-03-28 18:42:00,49.0,19.0,-100.00,SW,220,13.0,13.0,29,0.00,,,-99.99,,2013-03-28 22:42:00,
2013-03-28 18:52:00,49.0,19.0,-100.00,SW,225,13.0,13.0,29,0.00,,,-99.99,,2013-03-28 22:52:00,
2013-03-28 19:03:00,49.0,19.0,-100.00,WSW,240,13.0,13.0,30,0.00,,,-99.99,,2013-03-28 23:03:00,
2013-03-28 19:12:00,49.0,19.0,-100.00,SW,230,13.0,13.0,30,0.00,,,-99.99,,2013-03-28 23:12:00,
2013-03-28 19:22:00,48.0,19.0,-100.00,SW,230,13.0,13.0,31,0.00,,,-99.99,,2013-03-28 23:22:00,
2013-03-28 19:32:00,48.0,19.0,-100.00,SW,225,13.0,13.0,32,0.00,,,-99.99,,2013-03-28 23:32:00,
2013-03-28 19:42:00,47.0,20.0,-100.00,SW,220,13.0,13.0,34,0.00,,,-99.99,,2013-03-28 23:42:00,
2013-03-28 19:52:00,47.0,20.0,-100.00,SW,220,13.0,13.0,34,0.00,,,-99.99,,2013-03-28 23:52:00,
2013-03-28 20:02:00,46.0,20.0,-100.00,SW,220,13.0,13.0,35,0.00,,,-99.99,,2013-03-29 00:02:00,
2013-03-28 20:12:00,46.0,20.0,-100.00,SW,220,13.0,13.0,36,0.00,,,-99.99,,2013-03-29 00:12:00,
2013-03-28 20:22:00,44.0,23.0,-100.00,SW,215,13.0,13.0,42,0.00,,,-99.99,,2013-03-29 00:22:00,
2013-03-28 20:32:00,44.0,21.0,-100.00,SW,215,13.0,13.0,40,0.00,,,-99.99,,2013-03-29 00:32:00,
2013-03-28 20:42:00,43.0,22.0,-100.00,SSW,210,13.0,13.0,44,0.00,,,-99.99,,2013-03-29 00:42:00,
2013-03-28 20:52:00,42.0,22.0,-100.00,SW,215,13.0,13.0,44,0.00,,,-99.99,,2013-03-29 00:52:00,
2013-03-28 21:02:00,42.0,22.0,-100.00,SW,220,13.0,13.0,43,0.00,,,-99.99,,2013-03-29 01:02:00,
2013-03-28 21:12:00,42.0,22.0,-100.00,SW,220,13.0,13.0,44,0.00,,,-99.99,,2013-03-29 01:12:00,
2013-03-28 21:22:00,40.0,21.0,-100.00,SW,225,13.0,13.0,46,0.00,,,-99.99,,2013-03-29 01:22:00,
2013-03-28 21:33:00,40.0,22.0,-100.00,SW,225,13.0,13.0,47,0.00,,,-99.99,,2013-03-29 01:33:00,
2013-03-28 21:42:00,40.0,22.0,-100.00,SW,220,13.0,13.0,48,0.00,,,-99.99,,2013-03-29 01:42:00,
2013-03-28 21:52:00,38.0,22.0,-100.00,SW,235,13.0,13.0,50,0.00,,,-99.99,,2013-03-29 01:52:00,
2013-03-28 22:02:00,38.0,23.0,-100.00,WSW,245,13.0,13.0,53,0.00,,,-99.99,,2013-03-29 02:02:00,
2013-03-28 22:12:00,37.0,23.0,-100.00,WSW,245,13.0,13.0,56,0.00,,,-99.99,,2013-03-29 02:12:00,
2013-03-28 22:22:00,36.0,24.0,-100.00,SW,235,13.0,13.0,60,0.00,,,-99.99,,2013-03-29 02:22:00,
2013-03-28 22:32:00,36.0,23.0,-100.00,WSW,240,13.0,13.0,57,0.00,,,-99.99,,2013-03-29 02:32:00,
2013-03-28 22:42:00,37.0,23.0,-100.00,WSW,245,13.0,13.0,56,0.00,,,-99.99,,2013-03-29 02:42:00,
2013-03-28 22:52:00,37.0,23.0,-100.00,WSW,250,13.0,13.0,58,0.00,,,-99.99,,2013-03-29 02:52:00,
2013-03-28 23:02:00,36.0,23.0,-100.00,WSW,250,13.0,13.0,58,0.00,,,-99.99,,2013-03-29 03:02:00,
2013-03-28 23:12:00,36.0,23.0,-100.00,WSW,255,13.0,13.0,58,0.00,,,-99.99,,2013-03-29 03:12:00,
2013-03-28 23:22:00,35.0,22.0,-100.00,WSW,250,13.0,13.0,60,0.00,,,-99.99,,2013-03-29 03:22:00,
2013-03-28 23:32:00,33.0,23.0,-100.00,WSW,245,13.0,13.0,65,0.00,,,-99.99,,2013-03-29 03:32:00,
2013-03-28 23:42:00,33.0,24.0,-100.00,WSW,240,13.0,13.0,66,0.00,,,-99.99,,2013-03-29 03:42:00,
2013-03-28 23:53:00,33.0,24.0,-100.00,WSW,240,13.0,13.0,69,0.00,,,-99.99,,2013-03-29 03:53:00,